Location: Darlington Observatory
(36.4817°N, 105.8156°W)
Time: 00:59:24
(UTC-06:00)

Daily predictions for brighter satellites

Satellite Brightness Start Highest point End
(mag) Time Altitude Azimuth Time Altitude Azimuth Time Altitude Azimuth
CZ-4C R/B 4.3 00:11:58 22° N 00:11:58 22° N 00:14:20 10° NNE
ATLAS 5 CENTAUR R/B 4.1 00:09:54 10° NNW 00:12:44 28° N 00:12:44 28° N
Resurs 1-4 Rocket 4.4 02:11:14 10° NE 02:13:07 18° ENE 02:13:07 18° ENE
ATLAS CENTAUR R/B 4.4 02:46:57 69° SSW 02:48:54 84° SE 03:16:16 10° NE
Cosmos 1980 Rocket 3.9 03:05:13 10° N 03:10:06 30° ENE 03:14:58 10° ESE
Lacrosse 4 Rocket 3.9 03:08:15 10° N 03:09:49 20° N 03:09:49 20° N
Cosmos 1607 4.4 03:13:47 55° NNW 03:13:47 55° NNW 03:19:13 10° NNE
CZ-2D R/B 3.0 03:07:40 10° NNE 03:11:21 45° NNE 03:11:21 45° NNE
Cosmos 1697 Rocket 3.4 03:08:03 10° NNW 03:12:50 51° NNE 03:12:50 51° NNE
USA 215 4.1 03:08:25 10° ENE 03:14:17 36° SE 03:14:17 36° SE
Cosmos 2082 Rocket 2.9 03:16:53 48° N 03:16:53 48° N 03:20:57 10° NNE
SL-16 R/B 2.9 03:19:42 58° NNW 03:19:42 58° NNW 03:24:39 10° NNW
Cosmos 1092 Rocket 4.2 03:12:06 10° N 03:17:20 65° N 03:17:20 65° N
Cosmos 1867 4.4 03:13:38 10° NNW 03:18:06 48° NNE 03:18:06 48° NNE
ARIANE 5 R/B 3.2 03:19:51 10° NNE 03:23:59 54° NE 03:23:59 54° NE
ADEOS II 3.3 03:39:21 10° NNE 03:44:10 36° E 03:45:42 30° SE
Cosmos 1627 Rocket 4.3 03:38:22 10° N 03:44:46 84° W 03:45:06 80° SSW
USA 238 DEB 4.5 03:43:52 35° SSE 03:45:50 43° ESE 03:52:17 10° NE
IRS-1D 4.3 03:42:27 10° N 03:46:17 43° NNW 03:46:17 43° NNW
ADEOS 3.6 03:45:20 10° NNE 03:50:33 72° ESE 03:50:44 71° ESE
Resurs 1-4 Rocket 3.2 03:50:37 10° N 03:54:13 31° NW 03:54:13 31° NW
Cosmos 1833 Rocket 3.8 03:55:59 30° NW 03:55:59 30° NW 04:00:22 10° N
Lacrosse 5 rocket 3.2 03:57:15 24° NNW 03:57:15 24° NNW 03:59:53 10° NNE
Helios 1A Rocket 4.0 03:52:24 10° N 03:55:10 40° N 03:55:10 40° N
Cosmos 2058 Rocket 4.4 03:52:39 10° N 03:56:47 38° E 03:58:41 26° SE
Cosmos 1766 4.2 03:56:02 10° N 03:59:25 46° ENE 03:59:25 46° ENE
Cosmos 1634 Rocket 4.4 04:03:12 44° WNW 04:03:12 44° WNW 04:08:52 10° N
Cosmos 2180 Rocket 4.4 04:02:53 50° S 04:04:44 88° ESE 04:11:10 10° N
Cosmos 841 Rocket 4.3 04:05:16 33° SSE 04:07:00 45° ESE 04:11:57 10° NNE
Cosmos 1606 Rocket 3.9 04:03:50 10° N 04:07:16 56° NNW 04:07:16 56° NNW
BREEZE-M R/B 3.3 04:09:00 54° NE 04:09:00 54° NE 04:13:00 10° NE
SL-8 R/B 3.9 04:10:06 57° SSE 04:10:06 57° SSE 04:14:00 10° SE
Cosmos 2228 3.2 04:09:08 10° N 04:13:24 65° E 04:14:16 50° SE
Cosmos 2360 4.0 04:08:18 10° NNW 04:14:00 80° WSW 04:18:17 18° SSE
Cosmos 1892 Rocket 3.5 04:17:11 67° NW 04:17:11 67° NW 04:21:19 10° N
Cosmos 2279 Rocket 4.1 04:17:24 50° WSW 04:18:34 57° W 04:24:44 10° N
SJ 16-02 4.5 04:21:00 10° NNE 04:23:40 16° ENE 04:26:21 10° E
Meteor 1-21 4.1 04:29:36 36° SSW 04:32:02 79° W 04:37:42 10° N
Cosmos 1763 Rocket 3.5 04:33:34 45° SW 04:35:02 65° WNW 04:40:19 10° NNE
ATLAS 3B R/B 2.8 04:34:18 29° SSW 04:38:22 85° ESE 04:45:23 10° NNE
Timation 2 Rocket 3.8 04:37:46 35° SW 04:40:27 72° WNW 04:46:27 10° NNE
NOSS 3-2 (A) 3.8 04:37:32 23° S 04:41:11 59° ESE 04:47:23 10° NE
Cosmos 1898 Rocket 3.6 04:40:23 10° NNW 04:45:24 49° WSW 04:49:17 17° S
UNKNOWN OBJECT B 4.3 04:43:23 10° NNW 04:45:45 21° NW 04:45:45 21° NW
Centaur D-1A AC-31 4.4 04:45:55 17° SSW 04:50:00 21° S 05:13:09 10° SE
Centaur D-1A AC-31 4.4 04:45:55 17° SSW 04:50:01 21° S 05:13:09 10° SE
Hubble Space Telescope 3.1 04:52:28 11° S 04:52:28 11° S 04:52:51 10° SSE
Cosmos 2360 Rocket 4.4 04:46:50 10° N 04:51:35 27° ENE 04:56:19 10° ESE
Okean O Rocket 3.4 04:47:50 10° NE 04:51:41 30° E 04:55:29 10° SSE
CZ-2D R/B 4.2 04:51:02 10° NW 04:52:17 11° WNW 04:52:41 11° WNW
Transit 2A Rocket 4.4 04:48:16 10° NNW 04:52:45 89° ENE 04:57:02 10° SSE
Cosmos 1980 Rocket 2.7 04:49:04 10° NW 04:54:02 34° WSW 04:56:42 22° SSW
SEDSat Delta rocket 4.2 04:50:44 29° WSW 04:54:05 57° S 05:00:44 10° ESE
Cosmos 1470 3.8 04:51:57 10° N 04:55:49 48° E 04:59:39 10° SSE
USA 215 3.5 04:51:06 10° NE 04:57:28 57° NW 05:01:38 22° WSW
Cosmos 1937 Rocket 3.5 04:53:44 10° NNW 04:58:46 53° WSW 05:03:44 10° S
Cosmos 2082 Rocket 4.3 04:59:28 10° WNW 05:00:21 10° NW 05:01:15 10° NW
CENTAUR R/B 4.5 04:57:15 10° SSE 05:01:40 23° ESE 05:06:29 10° ENE
ARIANE 5 R/B 4.4 05:01:13 10° NW 05:03:32 13° WNW 05:04:20 13° WNW
SL-16 R/B 2.2 04:58:57 10° NNW 05:04:39 89° E 05:10:19 10° SSE
Cosmos 2266 Rocket 3.9 05:00:12 10° NNW 05:06:10 61° W 05:12:12 10° S
Cosmos 1707 2.7 05:11:42 10° S 05:15:32 86° E 05:19:26 10° N
ATLAS 5 CENTAUR R/B 4.1 05:09:59 15° SW 05:16:30 22° SSW 05:21:07 10° SE
DNEPR-1 R/B 3.5 05:13:52 21° SW 05:16:35 66° WNW 05:21:02 10° NNE
Cosmos 292 Rocket 4.2 05:14:41 19° SW 05:17:48 45° WNW 05:22:25 10° N
Cosmos 2150 Rocket 4.3 05:13:37 10° NNW 05:18:52 49° WSW 05:24:05 10° S
Cosmos 1953 2.3 05:16:22 10° NNW 05:20:24 63° W 05:24:24 10° S
Cosmos 836 Rocket 4.4 05:15:27 10° SSW 05:20:39 81° WNW 05:25:54 10° NNE
Cosmos 2322 Rocket 2.1 05:15:55 10° NNW 05:21:31 69° WSW 05:27:04 10° S
OAO 3 Rocket 4.1 05:19:31 19° WSW 05:21:48 29° SSW 05:25:51 10° SE
ERBS 3.8 05:19:19 10° S 05:22:22 33° SE 05:25:27 10° ENE
Cosmos 1833 4.3 05:16:42 10° SSW 05:22:31 87° ESE 05:28:20 10° NNE
ADEOS II 3.2 05:19:26 10° NNW 05:23:40 25° WNW 05:26:40 15° WSW
PSLV R/B 3.8 05:20:58 10° N 05:24:46 58° WNW 05:28:28 10° SSW
CZ-4B R/B 4.3 05:21:34 10° NNE 05:25:20 59° E 05:29:14 10° S
PSLV R/B 4.1 05:23:17 10° N 05:27:11 37° WNW 05:30:38 12° SW
PAYLOAD B 4.4 05:21:36 10° NNE 05:27:14 81° ESE 05:32:50 10° SSW
Meteor 1-31 Rocket 3.1 05:24:11 10° NNE 05:28:04 69° E 05:31:53 10° S
USA 267 4.5 05:23:57 10° ESE 05:30:03 43° NE 05:36:09 10° NNW
Cosmos 1378 3.7 05:27:49 12° SSW 05:30:59 39° W 05:34:32 10° N
Cosmos 372 Rocket 4.2 05:26:17 10° NNW 05:31:31 77° ENE 05:36:40 10° SSE
Cosmos 1812 Rocket 3.7 05:29:32 10° NNW 05:33:55 56° W 05:38:16 10° S
Cosmos 1602 Rocket 4.5 05:32:54 12° SW 05:36:16 28° WNW 05:40:02 10° NNW
USA 238 DEB 4.5 05:31:20 13° WSW 05:36:50 36° NW 05:43:12 10° NNE
USA 238 4.5 05:31:25 13° WSW 05:36:56 37° NW 05:43:19 10° NNE
BREEZE-M DEB (TANK) 3.1 05:39:03 12° W 05:40:41 25° NNW 05:42:55 10° NE
Cosmos 1758 Rocket 3.6 05:37:51 10° S 05:42:09 85° E 05:46:31 10° N
Cosmos 44 3.8 05:38:31 10° NW 05:43:31 44° WSW 05:48:36 10° S
CZ-4B R/B 3.2 05:38:13 10° NNE 05:43:49 87° WNW 05:49:16 10° SSW
CRYOSAT 2 4.4 05:39:16 10° S 05:44:03 63° W 05:48:52 10° NNW
Meteor 1-28 Rocket 3.3 05:50:25 10° S 05:54:03 54° W 05:57:44 10° NNW
PSLV R/B 2.9 05:51:56 10° WSW 05:54:55 79° SSE 05:57:55 10° ENE
Cosmos 2322 4.0 05:54:50 10° NNW 06:00:34 77° ENE 06:06:17 10° SSE
